Vancouver, British Columbia

8:59 PM PDT on September 21, 2017 (GMT -0700)
Vancouver International Airport

Weather History for CYVR - August, 2014

Change the Weather History Date:

Wednesday, August 20, 2014

  Actual Average Record
Temperature  
Mean Temperature 64 °F -  
Max Temperature 71 °F 67 °F 78 °F (2005)
Min Temperature 57 °F 52 °F 51 °F (2010)
Degree Days  
Heating Degree Days 1    
Growing Degree Days 14 (Base 50)    
Moisture  
Dew Point 57 °F    
Average Humidity 75    
Maximum Humidity 94    
Minimum Humidity 56    
Precipitation  
Precipitation 0.00 in 0.07 in - ()
Sea Level Pressure  
Sea Level Pressure 29.91 in    
Wind  
Wind Speed 7 mph ()    
Max Wind Speed 14 mph    
Max Gust Speed 25 mph    
Visibility 16.4 miles    
Events      
Averages and records for this station are not official NWS values.
T = Trace of Precipitation, MM = Missing Value Source: Averaged Metar Reports

Daily Weather History Graph

Daily Weather History Graph

Search for Another Location

Airport or City:

Trip Planner

Search our weather history database for the weather conditions in past years. The results will help you decide how hot, cold, wet, or windy it might be!

Date:

Astronomy

Aug. 20, 2014 Rise Set
Actual Time 6:11 AM PDT 8:19 PM PDT
Civil Twilight 5:37 AM PDT 8:53 PM PDT
Nautical Twilight 4:54 AM PDT 9:36 PM PDT
Astronomical Twilight 4:05 AM PDT 10:24 PM PDT
Moon 1:46 AM PDT (8/20) 5:17 PM PDT (8/20)
Length of Visible Light 15h 16m
Length of Day
14h 07m
Waning Crescent, 20% of the Moon is Illuminated
Aug 20
Waning Crescent
Aug 25
New
Sep 2
First Quarter
Sep 8
Full
Sep 15
Last Quarter

Hourly Weather History & Observations

Time (PDT) Temp. Dew Point Humidity Pressure Visibility Wind Dir Wind Speed Gust Speed Precip Events Conditions
12:00 AM 64.4 °F 62.6 °F 94% 29.79 in 15.0 mi South 4.6 mph - N/A   Clear
1:00 AM 66.2 °F 60.8 °F 83% 29.80 in 15.0 mi Calm Calm - N/A   Scattered Clouds
2:00 AM 60.8 °F 57.2 °F 88% 29.81 in 15.0 mi East 4.6 mph - N/A   Scattered Clouds
3:00 AM 59.0 °F 57.2 °F 94% 29.82 in 15.0 mi East 6.9 mph - N/A   Partly Cloudy
4:00 AM 59.0 °F 57.2 °F 94% 29.84 in 15.0 mi Variable 8.1 mph - N/A   Partly Cloudy
5:00 AM 59 °F 56 °F 88% 29.85 in 15 mi ENE 9.2 mph - -   Partly Cloudy
5:00 AM 59.0 °F 55.4 °F 88% 29.85 in 15.0 mi ENE 9.2 mph - N/A   Mostly Cloudy
6:00 AM 59.0 °F 55.4 °F 88% 29.88 in 15.0 mi East 8.1 mph - N/A   Mostly Cloudy
7:00 AM 59.0 °F 55.4 °F 88% 29.89 in 15.0 mi East 9.2 mph - N/A   Scattered Clouds
8:00 AM 62.6 °F 55.4 °F 77% 29.91 in 15.0 mi East 11.5 mph - N/A   Mostly Cloudy
9:00 AM 66.2 °F 57.2 °F 73% 29.92 in 15.0 mi ESE 6.9 mph - N/A   Mostly Cloudy
10:00 AM 66.2 °F 57.2 °F 73% 29.94 in 15.0 mi SE 6.9 mph - N/A   Mostly Cloudy
11:00 AM 67 °F 57 °F 61% 29.95 in 15 mi SSE 11.5 mph - -   Mostly Cloudy
11:00 AM 66.2 °F 57.2 °F 73% 29.95 in 15.0 mi SSE 10.4 mph 18.4 mph N/A   Mostly Cloudy
12:00 PM 68.0 °F 57.2 °F 68% 29.96 in 15.0 mi South 9.2 mph - N/A   Mostly Cloudy
1:00 PM 68.0 °F 55.4 °F 64% 29.96 in 15.0 mi South 4.6 mph - N/A   Mostly Cloudy
2:00 PM 69.8 °F 59.0 °F 68% 29.96 in 15.0 mi SW 10.4 mph - N/A   Mostly Cloudy
3:00 PM 69.8 °F 57.2 °F 64% 29.96 in 20.0 mi SSW 13.8 mph 21.9 mph N/A   Mostly Cloudy
4:41 PM 69.8 °F 59.0 °F 68% 29.95 in 30.0 mi SW 11.5 mph 17.3 mph N/A   Scattered Clouds
5:00 PM 69 °F 57 °F 56% 29.95 in 28 mi SSW 11.5 mph - -   Scattered Clouds
5:00 PM 69.8 °F 57.2 °F 64% 29.95 in 30.0 mi SSW 11.5 mph 25.3 mph N/A   Scattered Clouds
6:00 PM 69.8 °F 57.2 °F 64% 29.94 in 30.0 mi SSW 9.2 mph - N/A   Partly Cloudy
7:00 PM 69.8 °F 55.4 °F 60% 29.94 in 20.0 mi SSE 8.1 mph - N/A   Clear
8:00 PM 66.2 °F 55.4 °F 68% 29.94 in 20.0 mi SE 8.1 mph - N/A   Clear
9:00 PM 62.6 °F 53.6 °F 72% 29.95 in 20.0 mi East 9.2 mph - N/A   Clear
10:00 PM 64.4 °F 55.4 °F 73% 29.97 in 20.0 mi East 8.1 mph - N/A   Partly Cloudy
11:00 PM 64 °F 56 °F 67% 29.97 in 19 mi East 9.2 mph - -   Scattered Clouds
11:00 PM 64.4 °F 55.4 °F 73% 29.97 in 20.0 mi East 9.2 mph - N/A   Partly Cloudy